This is the latest recevied weather packets stored in our database for station/object OK1KZE-6. If no packets are shown the sender has not sent any weather packets the latest 10 day(s).
| Time | Temp. | Humidity | Pressure | Rain* | Wind** | Luminosity | Snow |
|---|---|---|---|---|---|---|---|
| 1777602308 | 5.56° C | 63% | 1030.5 hPa | - | - | - | - |
| 1777602008 | 5.56° C | 63% | 1030.5 hPa | - | - | - | - |
| 1777601708 | 5.56° C | 63% | 1030.6 hPa | - | - | - | - |
| 1777601408 | 6.11° C | 62% | 1030.6 hPa | - | - | - | - |
| 1777601108 | 6.11° C | 61% | 1030.3 hPa | - | - | - | - |
| 1777600808 | 6.11° C | 60% | 1030.4 hPa | - | - | - | - |
| 1777600507 | 6.67° C | 60% | 1030.6 hPa | - | - | - | - |
| 1777599908 | 6.67° C | 59% | 1030.5 hPa | - | - | - | - |
| 1777599608 | 6.67° C | 58% | 1030.3 hPa | - | - | - | - |
| 1777599307 | 7.22° C | 57% | 1030.3 hPa | - | - | - | - |
| 1777599008 | 7.22° C | 57% | 1030.4 hPa | - | - | - | - |
| 1777598708 | 6.67° C | 59% | 1030.4 hPa | - | - | - | - |
| 1777598407 | 7.78° C | 56% | 1030.2 hPa | - | - | - | - |
| 1777598108 | 7.78° C | 55% | 1030.3 hPa | - | - | - | - |
| 1777597808 | 7.78° C | 55% | 1030.3 hPa | - | - | - | - |
| 1777597507 | 7.78° C | 55% | 1030.2 hPa | - | - | - | - |
| 1777597208 | 7.78° C | 55% | 1030.1 hPa | - | - | - | - |
| 1777596907 | 7.22° C | 57% | 1030.1 hPa | - | - | - | - |
| 1777596608 | 7.78° C | 56% | 1030.4 hPa | - | - | - | - |
| 1777596308 | 7.78° C | 55% | 1030.3 hPa | - | - | - | - |
| 1777596008 | 8.33° C | 54% | 1030.4 hPa | - | - | - | - |
| 1777595707 | 9.44° C | 51% | 1030.3 hPa | - | - | - | - |
| 1777595408 | 8.89° C | 51% | 1030 hPa | - | - | - | - |
| 1777595107 | 8.89° C | 51% | 1030.2 hPa | - | - | - | - |
| 1777594808 | 8.89° C | 51% | 1030.3 hPa | - | - | - | - |
* Rain since midnight (hover to see other rain measurements)
** Current wind speed in m/s (hover to see current wind gust speed)